Marrakech, Morocco

11:44 PM WET on December 04, 2016 (GMT +0000)
Menara

Weather History for GMMX - May, 2013

Change the Weather History Date:

Saturday, May 4, 2013

  Actual Average Record
Temperature  
Mean Temperature 68 °F -  
Max Temperature 82 °F 77 °F 95 °F (2014)
Min Temperature 53 °F 55 °F 50 °F (2004)
Cooling Degree Days 2    
Growing Degree Days 18 (Base 50)    
Moisture  
Dew Point 49 °F    
Average Humidity 55    
Maximum Humidity 94    
Minimum Humidity 16    
Precipitation  
Precipitation 0.00 in - - ()
Sea Level Pressure  
Sea Level Pressure 30.00 in    
Wind  
Wind Speed 4 mph ()    
Max Wind Speed 13 mph    
Max Gust Speed -    
Visibility 6.2 miles    
Events      
Averages and records for this station are not official NWS values.
T = Trace of Precipitation, MM = Missing Value Source: Averaged Metar Reports

Daily Weather History Graph

Daily Weather History Graph

Search for Another Location

Airport or City:

Trip Planner

Search our weather history database for the weather conditions in past years. The results will help you decide how hot, cold, wet, or windy it might be!

Date:

Astronomy

May. 04, 2013 Rise Set
Actual Time 6:44 AM WEST 8:14 PM WEST
Civil Twilight 6:18 AM WEST 8:40 PM WEST
Nautical Twilight 5:46 AM WEST 9:11 PM WEST
Astronomical Twilight 5:14 AM WEST 9:44 PM WEST
Moon 3:14 AM WEST 3:16 PM WEST
Length of Visible Light 14h 22m
Length of Day
13h 30m
Waning Crescent, 29% of the Moon is Illuminated
May 4
Waning Crescent
May 10
New
May 18
First Quarter
May 25
Full
May 31
Last Quarter

Hourly Weather History & Observations

Time (WEST) Temp. Dew Point Humidity Pressure Visibility Wind Dir Wind Speed Gust Speed Precip Events Conditions
12:00 AM 62.6 °F 50.0 °F 63% 30.04 in 6.2 mi NE 10.4 mph - N/A   Partly Cloudy
12:30 AM 62.6 °F 50.0 °F 63% 30.04 in 6.2 mi ENE 5.8 mph - N/A   Partly Cloudy
1:00 AM 60 °F 49 °F 59% 30.01 in 6 mi East 8.1 mph - -   Scattered Clouds
1:00 AM 60.8 °F 50.0 °F 68% 30.04 in 6.2 mi East 8.1 mph - N/A   Partly Cloudy
1:30 AM 60.8 °F 50.0 °F 68% 30.01 in 6.2 mi ENE 3.5 mph - N/A   Partly Cloudy
2:00 AM 60.8 °F 50.0 °F 68% 30.01 in 6.2 mi Calm Calm - N/A   Partly Cloudy
2:30 AM 60.8 °F 50.0 °F 68% 30.01 in 6.2 mi Calm Calm - N/A   Partly Cloudy
3:00 AM 59.0 °F 50.0 °F 72% 30.01 in 6.2 mi Calm Calm - N/A   Partly Cloudy
3:30 AM 57.2 °F 50.0 °F 77% 29.98 in 6.2 mi Calm Calm - N/A   Partly Cloudy
4:00 AM 57 °F 50 °F 70% 29.98 in 6 mi Calm Calm - -   Scattered Clouds
4:00 AM 57.2 °F 50.0 °F 77% 29.98 in 6.2 mi Calm Calm - N/A   Partly Cloudy
4:30 AM 55.4 °F 50.0 °F 82% 29.98 in 6.2 mi Calm Calm - N/A   Partly Cloudy
5:00 AM 55.4 °F 50.0 °F 82% 29.98 in 6.2 mi Calm Calm - N/A   Partly Cloudy
5:30 AM 55.4 °F 50.0 °F 82% 29.98 in 6.2 mi Calm Calm - N/A   Partly Cloudy
6:00 AM 53.6 °F 50.0 °F 88% 29.98 in 6.2 mi Calm Calm - N/A   Partly Cloudy
6:30 AM 55.4 °F 50.0 °F 82% 30.01 in 6.2 mi Calm Calm - N/A   Partly Cloudy
7:00 AM 54 °F 51 °F 85% 30.02 in 6 mi Calm Calm - -   Scattered Clouds
7:00 AM 53.6 °F 50.0 °F 88% 30.01 in 6.2 mi Calm Calm - N/A   Partly Cloudy
7:30 AM 53.6 °F 51.8 °F 94% 30.01 in 6.2 mi Calm Calm - N/A   Partly Cloudy
8:00 AM 55.4 °F 51.8 °F 88% 30.01 in 6.2 mi Calm Calm - N/A   Partly Cloudy
8:30 AM 57.2 °F 53.6 °F 88% 30.04 in 6.2 mi WSW 8.1 mph - N/A   Scattered Clouds
9:00 AM 59.0 °F 53.6 °F 82% 30.04 in 6.2 mi West 6.9 mph - N/A   Scattered Clouds
9:30 AM 60.8 °F 53.6 °F 77% 30.04 in 6.2 mi WNW 4.6 mph - N/A   Scattered Clouds
10:00 AM 62 °F 53 °F 63% 30.02 in 6 mi Calm Calm - -   Partly Cloudy
10:00 AM 62.6 °F 51.8 °F 68% 30.04 in 6.2 mi Calm Calm - N/A   Scattered Clouds
10:30 AM 64.4 °F 53.6 °F 68% 30.04 in 6.2 mi Calm Calm - N/A   Scattered Clouds
11:00 AM 66.2 °F 53.6 °F 64% 30.04 in 6.2 mi NNW 3.5 mph - N/A   Scattered Clouds
11:30 AM 68.0 °F 53.6 °F 60% 30.04 in 6.2 mi Calm Calm - N/A   Scattered Clouds
12:00 PM 69.8 °F 53.6 °F 56% 30.04 in 6.2 mi NE 2.3 mph - N/A   Scattered Clouds
12:30 PM 71.6 °F 51.8 °F 50% 30.04 in - Variable 2.3 mph - N/A   Clear
1:00 PM 73 °F 50 °F 33% 29.96 in 6 mi NE 3.5 mph - -   Clear
1:00 PM 73.4 °F 51.8 °F 47% 30.01 in - ENE 4.6 mph - N/A   Clear
1:30 PM 75.2 °F 50.0 °F 41% 30.01 in - NE 8.1 mph - N/A   Clear
2:00 PM 77.0 °F 50.0 °F 39% 30.01 in 6.2 mi Calm Calm - N/A   Partly Cloudy
2:30 PM 77.0 °F 48.2 °F 36% 29.98 in 6.2 mi Variable 3.5 mph - N/A   Partly Cloudy
3:00 PM 78.8 °F 50.0 °F 36% 29.98 in 6.2 mi Variable 3.5 mph - N/A   Partly Cloudy
3:30 PM 78.8 °F 48.2 °F 34% 29.98 in 6.2 mi Variable 2.3 mph - N/A   Scattered Clouds
4:00 PM 80 °F 48 °F 22% 29.89 in 6 mi ESE 1.2 mph - -   Partly Cloudy
4:00 PM 80.6 °F 48.2 °F 32% 29.98 in 6.2 mi Variable 2.3 mph - N/A   Scattered Clouds
4:30 PM 80.6 °F 46.4 °F 30% 29.95 in 6.2 mi East 5.8 mph - N/A   Scattered Clouds
5:00 PM 80.6 °F 46.4 °F 30% 29.95 in 6.2 mi Variable 2.3 mph - N/A   Scattered Clouds
5:30 PM 82.4 °F 44.6 °F 26% 29.95 in 6.2 mi NW 6.9 mph - N/A   Scattered Clouds
6:00 PM 82.4 °F 42.8 °F 25% 29.95 in 6.2 mi WNW 5.8 mph - N/A   Scattered Clouds
6:30 PM 82.4 °F 42.8 °F 25% 29.95 in 6.2 mi NE 4.6 mph - N/A   Scattered Clouds
7:00 PM 81 °F 43 °F 16% 29.88 in 6 mi NW 5.8 mph - -   Partly Cloudy
7:00 PM 82.4 °F 42.8 °F 25% 29.95 in 6.2 mi NW 5.8 mph - N/A   Scattered Clouds
7:30 PM 80.6 °F 42.8 °F 26% 29.95 in 6.2 mi North 3.5 mph - N/A   Scattered Clouds
8:00 PM 80.6 °F 42.8 °F 26% 29.95 in 6.2 mi Calm Calm - N/A   Scattered Clouds
8:30 PM 77.0 °F 50.0 °F 39% 29.98 in 6.2 mi North 12.7 mph - N/A   Scattered Clouds
9:00 PM 75.2 °F 48.2 °F 38% 30.01 in 6.2 mi North 11.5 mph - N/A   Scattered Clouds
9:30 PM 73.4 °F 48.2 °F 41% 30.01 in 6.2 mi North 11.5 mph - N/A   Scattered Clouds
10:00 PM 72 °F 47 °F 29% 29.99 in 6 mi North 9.2 mph - -   Scattered Clouds
10:00 PM 71.6 °F 46.4 °F 41% 30.04 in 6.2 mi North 10.4 mph - N/A   Scattered Clouds
10:30 PM 71.6 °F 44.6 °F 38% 30.04 in 6.2 mi NNE 11.5 mph - N/A   Scattered Clouds
11:00 PM 69.8 °F 44.6 °F 40% 30.06 in 6.2 mi NNE 5.8 mph - N/A   Scattered Clouds
11:30 PM 69.8 °F 46.4 °F 43% 30.06 in 6.2 mi NE 4.6 mph - N/A   Scattered Clouds